Showing default

LEMUR-2 SEJONG-3, 68482

Orbit data source: Space-Track

LEMUR-2 SEJONG-3, 68482 is a payload satellite owned by Hancom InSpace (DE) in SSO that was launched on Mon, 30 Mar 2026 UTC via an FALCON 9 launch vehicle from the Air Force Western Test Range (AFWTR). Payload-class satellites include a variety of spacecraft equipped with specific instruments for various scientific and technological missions. These include communications satellites like Starlink; space stations such as the ISS; scientific satellites like the Hubble; Earth observation satellites from companies like Planet Labs, Umbra, and HawkEye 360; GPS; miniature CubeSats for education and research; and military/defense satellites.

Loading next visibility...
Identifier
68482, 2026-067BU
Orbit
SSO
Country
Flag of DEDE / GER
Related business
Manufacturer
Spire/Glasgow
Mission
Operational Commercial Imaging
Bus & Motor
CUBESAT 6U, Unknown motor
Mass
11 kg wet, 11 kg dry
Launch date (UTC)
2026-03-30 (6 months ago)
Launch vehicle
FALCON 9
Launch site
Air Force Western Test Range (AFWTR)
Object type
Payload
Rocket body
Debris
Shape & HBR
Box + 2 Pan, 0.4 m
Radar Cross Section
0.077 m², Medium (>0.1 m² and < 1m²)

Expand to show TLE details & history
Last TLE update: 7 hours ago

TLE from 7 hours ago
0 LEMUR-2 SEJONG-3
1 68482U 26067BU  26263.15536442  .00002171  00000-0  21206-3 0  9993
2 68482  97.7671 220.2557 0002124 322.6875  37.4196 14.93425611 25904
Epoch: 2026-09-20T03:43Z
TLE epoch observation values (Epoch: 2026-09-20T03:43:43.485Z)
Latitude
-0.00013°
Longitude
165.27093°
Altitude
589.132 km
Speed
7.566 km/s
True Right ascension
14h 41m 01s
True Declination
0° 00' 00"
Sunlit
Object was in daylight at epoch
Visualization orbit readout
Latitude
Unknown
Longitude
Unknown
Altitude
Unknown
Speed
Unknown
Apparent Right ascension
Unknown
Apparent Declination
Unknown
Sunlit
N/A
Visualization observer readout
Local Sidereal Time
03:11:14
Azimuth
Unknown
Elevation
Unknown
Doppler factor
Unknown
Orbital elements
Apogee altitude
585.76 km
Perigee altitude
582.802 km
Semi-major axis
6,962.418 km
Eccentricity
0.00021
Inclination
97.7671°
RAAN
220.2557°
Arg. of periapsis
322.6875°
True anomaly
37.43439°
Mean anomaly
37.4196°
Eccentric anomaly
37.427°
Mean motion
3.73597 °/min
Orbital period
96.36 mins
BSTAR
0.00021206
Loading maneuver chart data...
Computing Atmospheric mass density...
Loading historical data...
Loading historical data...
Loading historical data...
Loading historical data...
Loading historical data...
Loading historical data...
Loading historical data...

Documentation

Showing up to 5 results
|